Theta_e
293 288 285 288 289 291 289 287 287 291 295 290 290 291 293 295 294 295 295 297 298 299 304 305 308 312 317 317 320 325 330 332 339 338 339 337 338 338 337 339 342 342 342 342
289 286 292 293 293 291 290 287 287 291 294 290 290 290 293 293 294 295 296 297 297 296 300 303 311 314 316 317 318 320 322 325 334 338 335 336 335 336 337 337 337 341 345 344
287 291 296 294 292 290 289 287 287 288 292 291 289 289 290 294 294 296 297 297 297 298 300 305 312 314 314 316 318 319 321 320 323 334 337 336 334 337 332 334 335 337 340 343
289 295 293 292 290 291 286 294 295 293 288 282 289 282 289 291 292 294 296 295 296 296 299 301 310 311 313 316 316 317 318 319 320 325 329 333 332 331 333 332 334 335 337 338
290 291 290 290 292 295 291 297 294 293 287 282 285 280 288 288 289 292 294 296 297 299 297 300 307 311 314 313 313 313 315 315 316 316 320 322 322 326 327 328 330 333 335 336
293 296 294 293 295 297 298 293 291 289 284 279 285 284 286 289 290 292 294 297 300 300 300 299 305 311 311 310 310 312 312 312 314 314 315 317 317 318 319 322 324 326 329 334
291 292 294 299 293 295 292 285 278 277 277 280 287 284 285 291 294 294 294 295 297 299 298 298 302 307 309 309 310 311 312 312 314 315 314 314 314 315 316 317 319 318 320 322
284 283 293 299 294 290 288 287 279 274 276 280 287 280 286 293 296 298 298 297 298 297 296 298 304 308 310 311 311 312 311 310 314 315 315 316 317 317 317 318 318 318 317 318
284 286 296 298 297 294 289 284 288 281 281 277 281 286 292 295 296 298 298 297 297 297 298 299 304 308 310 307 310 310 308 308 311 313 312 313 314 315 317 318 319 320 319 324
289 283 293 296 297 295 290 292 281 281 277 275 278 282 284 290 293 295 297 297 297 298 297 298 300 302 302 304 307 306 308 308 309 311 312 313 314 316 317 316 316 317 318 320
291 286 287 291 289 286 286 284 284 284 283 278 273 278 291 293 295 294 296 298 298 298 299 300 302 302 303 306 304 306 307 308 308 310 311 312 313 314 316 317 318 319 320 323
292 287 283 286 291 293 289 286 285 276 276 283 279 280 294 294 294 297 296 299 302 303 300 301 304 304 303 300 301 304 306 307 309 310 310 311 313 314 315 316 318 320 319 319
293 285 281 282 284 287 286 289 287 286 284 280 278 280 293 293 293 295 296 297 298 300 300 302 304 303 305 304 301 302 305 307 307 307 307 306 307 307 308 310 313 316 315 313
296 285 283 279 282 283 281 286 288 285 279 280 282 284 289 291 293 294 295 297 298 298 302 302 303 304 305 306 304 304 303 305 306 307 307 307 308 309 309 311 312 310 311 310
289 283 284 285 287 287 286 287 287 284 285 281 284 285 287 292 292 294 296 298 300 300 301 301 303 304 304 306 306 306 306 304 304 305 305 307 308 308 308 308 308 309 309 309
287 282 284 283 287 287 285 287 287 287 287 286 287 286 292 295 295 296 296 298 298 299 301 302 304 306 307 307 307 307 307 305 305 304 304 305 305 307 308 308 307 307 308 307
284 282 280 278 285 285 280 285 288 289 291 291 286 291 295 294 295 296 296 296 298 300 301 302 303 304 304 305 306 307 307 306 305 304 306 306 306 307 306 306 306 305 304 304
283 281 279 278 280 275 283 294 294 290 293 294 294 294 295 293 295 295 297 296 298 297 298 298 300 301 302 304 306 306 305 305 304 304 305 306 306 306 306 305 304 303 302 302
286 281 277 274 273 281 286 292 291 288 288 293 291 293 293 294 292 291 297 300 296 296 296 297 299 299 299 300 300 301 301 302 302 303 303 305 305 304 304 303 302 301 300 300
289 287 281 275 276 273 285 293 296 294 283 294 293 291 290 289 283 286 292 294 296 296 298 297 298 299 298 297 298 297 298 299 300 302 304 305 305 305 304 303 301 300 300 301
285 286 279 276 279 282 291 293 295 280 281 289 291 290 289 288 290 293 295 295 297 297 297 297 297 297 298 299 299 297 298 297 299 301 302 304 305 304 303 301 300 300 300 301
284 282 282 284 280 276 293 290 284 288 290 291 291 292 291 292 293 294 295 293 294 296 298 297 296 296 297 297 297 296 297 299 300 300 300 301 303 303 304 300 300 300 300 300
283 288 279 283 280 288 291 290 292 292 290 292 293 294 293 292 293 294 293 293 293 294 294 293 293 294 296 297 297 296 298 299 300 299 299 300 302 302 303 301 300 300 301 300
288 290 288 286 287 288 290 293 294 295 294 295 295 295 295 293 294 293 294 292 293 294 293 293 293 294 294 297 298 298 298 300 299 298 298 299 299 300 301 302 302 301 301 301
288 288 284 284 286 289 292 294 294 294 295 295 295 295 295 294 293 293 293 292 292 293 293 293 292 293 294 296 296 297 298 299 300 301 301 302 303 302 303 303 302 303 304 303
288 287 286 285 288 288 290 293 294 293 293 294 294 294 295 294 293 293 293 291 292 292 293 292 291 292 293 294 295 297 298 300 299 297 298 299 300 302 303 303 303 298 299 298
Wind_Speed
1 2 6 10 9 8 5 4 9 13 15 4 12 17 10 8 6 9 11 12 12 13 17 9 7 7 8 6 7 8 12 9 10 5 6 4 7 4 4 4 7 9 8 9
3 7 11 5 5 7 7 10 12 8 12 4 11 16 10 6 7 9 9 13 13 6 10 14 8 9 12 12 10 8 7 7 6 5 3 3 4 3 3 4 5 6 7 9
7 11 3 4 6 6 8 5 4 5 6 5 5 17 12 10 5 7 9 10 8 10 10 8 6 10 9 12 13 11 10 9 7 7 5 3 2 3 2 3 4 5 5 5
6 10 11 11 8 7 5 7 6 5 2 3 2 18 13 10 11 6 10 7 9 9 9 6 7 6 9 14 8 9 9 9 7 8 5 6 5 5 4 4 3 5 6 7
12 5 6 6 12 5 8 6 6 4 4 2 5 4 15 3 11 10 8 11 10 10 9 10 10 12 13 8 10 8 8 8 7 7 7 6 4 3 3 2 2 4 5 7
14 2 6 9 6 4 2 1 3 2 1 6 7 11 21 10 12 10 7 10 12 9 8 11 14 13 9 5 8 8 9 8 8 8 8 8 8 6 4 3 4 4 2 3
8 8 4 3 4 2 3 5 6 6 2 12 4 6 10 15 16 14 15 12 11 8 9 9 12 12 11 12 10 9 9 9 8 8 7 6 6 6 6 5 4 4 3 3
4 6 3 2 3 5 2 6 6 9 8 14 4 8 9 7 12 16 13 11 7 8 8 10 17 18 18 17 13 9 9 8 8 8 7 5 5 4 4 5 3 3 3 2
1 4 2 2 4 6 2 4 3 2 2 4 5 8 8 9 6 17 11 9 7 8 8 7 12 15 17 13 12 10 8 7 8 9 7 7 6 6 6 5 3 3 3 3
4 2 2 1 3 4 5 4 1 2 4 6 6 6 10 8 11 15 15 12 10 9 9 8 8 6 3 7 10 9 9 11 10 9 7 6 7 6 6 4 5 5 3 2
6 5 4 2 4 6 1 1 2 3 3 4 4 6 5 8 3 12 12 10 8 8 8 7 10 7 6 6 4 9 9 9 8 8 7 8 7 7 5 6 6 6 4 4
4 5 5 7 3 2 4 6 5 5 4 5 4 9 12 7 5 7 16 14 11 5 3 9 10 9 6 2 4 8 8 7 10 9 8 8 7 6 7 6 5 5 6 4
4 2 1 6 4 5 3 4 5 2 2 9 6 9 6 7 6 7 11 14 8 9 4 5 7 5 8 9 5 5 6 9 9 7 8 6 7 7 7 7 6 7 7 7
5 4 7 8 7 5 3 5 6 7 4 6 13 20 18 13 10 10 9 10 12 7 8 4 5 6 1 3 7 5 4 4 2 3 6 8 9 9 8 8 8 8 7 7
3 3 4 5 6 5 7 11 12 10 15 11 19 18 4 7 8 7 9 9 10 10 9 7 5 5 2 1 3 6 6 3 5 5 4 8 7 8 7 7 7 6 5 5
1 2 2 4 6 9 13 12 12 14 17 17 16 15 2 6 6 9 10 11 8 7 8 8 8 7 4 4 6 2 5 7 1 6 4 4 2 3 6 7 7 6 6 5
4 4 1 6 1 6 8 5 5 6 5 3 6 5 4 8 10 8 9 12 10 7 6 7 7 7 7 7 7 5 4 4 6 6 2 6 6 6 6 5 6 6 7 5
6 6 3 3 3 4 4 1 2 3 1 2 2 4 5 5 9 12 13 15 9 6 6 8 6 7 8 8 8 7 6 7 5 6 6 6 7 7 7 7 7 6 4 6
6 6 1 2 3 7 5 1 3 4 10 4 3 8 10 11 12 14 9 6 5 7 8 10 10 8 7 8 7 7 7 6 7 9 6 6 7 7 7 8 8 6 5 5
7 4 4 2 2 6 2 1 4 3 9 3 4 8 11 8 14 12 10 11 16 19 18 15 12 13 10 7 7 8 9 8 10 10 9 7 8 11 11 9 8 6 5 8
2 1 3 3 5 7 1 5 5 1 4 6 5 9 11 14 14 20 19 19 19 17 18 13 13 13 13 14 12 13 14 15 12 13 14 13 10 11 9 8 5 6 7 7
4 2 2 2 3 7 1 2 3 5 4 7 12 15 18 18 19 19 15 18 20 22 16 17 19 18 16 16 13 18 19 12 12 14 16 17 16 11 9 8 5 5 6 8
2 4 4 7 7 4 3 7 7 4 6 14 16 19 20 22 21 21 19 18 21 23 17 16 18 22 19 16 16 20 14 12 13 13 12 11 11 10 9 6 8 7 8 9
1 2 2 3 2 3 10 10 4 8 13 18 19 23 23 23 22 22 19 18 19 19 17 15 19 18 17 14 17 17 14 15 17 16 15 14 14 13 11 9 9 9 9 9
3 3 1 6 8 11 7 9 14 19 21 20 22 25 24 21 24 24 21 18 17 19 15 15 14 17 17 14 17 16 15 16 16 14 9 8 10 11 10 10 10 10 11 11
2 2 1 5 6 6 17 16 21 20 21 20 23 24 24 22 23 25 19 16 18 18 15 14 15 18 16 17 16 15 15 14 12 12 12 10 10 10 9 9 9 15 17 17
Wind_Direction
16 109 229 229 208 226 245 251 259 275 276 258 263 263 267 259 267 272 278 283 284 233 243 246 238 207 136 178 153 167 161 168 156 154 161 160 187 172 169 200 197 208 218 198
14 248 244 231 216 223 240 257 275 289 278 240 262 266 271 233 226 242 265 287 275 247 243 246 220 183 183 172 180 174 169 160 162 148 143 141 140 174 154 161 205 208 202 206
186 237 226 195 271 261 253 231 238 239 289 306 299 286 301 290 233 258 268 258 279 263 253 224 217 207 175 174 176 179 171 160 158 147 123 91 63 54 128 225 202 197 201 208
228 243 218 249 249 199 247 195 205 244 52 247 144 288 275 279 277 232 270 282 280 288 287 278 257 210 211 194 168 157 159 154 151 151 144 159 175 165 186 183 192 200 209 233
234 223 192 213 244 159 235 185 223 215 227 201 200 270 270 285 286 274 260 269 250 246 215 242 233 231 216 165 174 169 151 151 148 150 153 148 155 181 175 168 233 232 204 202
244 243 174 220 248 182 76 246 276 329 155 253 240 220 276 257 254 271 228 245 256 261 251 225 226 221 207 182 160 163 155 159 156 159 160 165 171 186 180 195 205 206 215 250
256 246 218 174 161 46 90 56 321 310 297 269 348 297 269 277 272 264 270 260 260 261 268 236 210 197 184 178 182 165 167 161 160 154 154 168 189 193 205 199 191 181 192 177
199 305 162 75 168 198 83 150 174 257 264 280 4 256 263 297 298 281 272 258 263 289 280 240 210 192 183 181 174 170 170 151 161 163 179 179 190 198 203 196 200 221 178 236
214 282 316 148 152 142 166 194 218 272 17 300 227 280 296 269 338 360 345 352 335 322 323 286 216 192 172 166 170 173 171 160 169 179 175 186 195 200 213 221 180 196 188 190
228 287 284 222 134 75 146 161 44 356 288 267 279 269 259 315 343 334 323 326 338 347 16 23 28 39 12 170 174 171 176 179 186 188 177 178 195 213 205 173 206 208 221 192
171 165 242 219 183 190 31 297 86 153 177 270 302 261 235 242 313 307 301 316 315 3 353 70 38 36 39 310 230 188 191 184 188 188 178 180 200 207 201 200 207 196 177 171
210 170 206 219 323 216 163 196 155 127 267 242 249 263 265 296 322 327 304 296 289 259 336 27 22 8 19 280 285 263 207 195 200 195 177 192 202 186 179 197 200 179 159 149
196 234 326 333 352 357 199 195 211 124 113 226 246 267 316 327 349 310 303 302 292 306 264 108 100 1 353 345 290 256 288 242 200 178 175 185 202 186 205 203 190 170 165 168
159 175 182 233 221 174 225 233 221 196 209 247 233 272 280 302 322 325 330 318 307 286 260 238 137 134 35 340 335 313 215 196 270 246 179 189 209 200 197 188 181 184 183 183
105 223 198 249 250 224 232 247 251 219 239 232 270 258 289 302 300 301 307 338 338 344 331 288 296 294 136 169 354 351 340 298 157 170 215 238 212 187 176 187 192 186 193 206
17 256 360 268 249 253 260 258 258 256 264 261 264 270 243 289 309 320 322 338 333 335 337 349 356 351 336 265 246 221 316 311 187 138 195 229 236 253 195 186 184 183 202 215
170 162 103 268 249 308 286 240 255 285 211 227 255 212 298 302 302 316 314 318 291 296 312 320 321 321 313 306 292 267 223 234 305 304 181 191 193 198 217 216 192 203 225 230
160 137 139 264 13 238 234 184 152 309 289 317 240 228 274 299 310 308 293 282 262 292 309 312 301 296 297 291 294 291 308 314 295 255 245 241 210 212 212 212 214 225 216 236
176 126 161 168 205 299 274 78 19 23 297 173 283 300 308 301 299 284 271 258 266 269 279 291 295 276 268 278 287 289 294 289 283 280 251 233 230 221 217 210 210 213 212 230
91 74 137 145 201 245 233 333 305 313 269 116 325 300 302 313 295 290 301 297 289 289 288 287 288 282 273 249 253 267 268 262 267 275 267 258 239 233 226 217 215 211 211 236
24 6 214 222 229 276 145 300 302 181 268 308 297 293 293 277 268 289 288 280 283 276 272 261 265 263 268 277 262 249 259 257 265 268 267 260 248 238 230 215 200 197 221 246
163 195 250 229 258 279 145 312 151 245 289 303 303 291 284 276 275 279 282 284 279 277 272 275 276 265 263 263 260 266 254 256 261 260 260 256 248 230 229 210 216 218 211 231
159 205 209 190 226 237 220 230 274 249 279 296 292 290 283 278 273 281 276 282 289 277 268 276 272 271 265 255 249 253 248 251 251 242 245 254 249 229 221 198 208 215 219 231
310 35 251 1 315 240 292 303 276 305 293 293 288 291 289 278 279 280 276 288 279 274 267 263 275 266 265 256 261 257 263 261 256 250 248 244 240 232 222 219 225 231 231 235
225 6 302 269 293 310 260 320 311 303 300 298 295 292 293 300 286 287 274 281 283 279 260 262 271 266 259 256 259 257 251 250 248 242 249 247 224 214 215 211 211 220 227 223
192 232 244 277 325 291 289 304 305 298 299 298 303 306 297 301 293 299 281 299 281 283 270 258 270 258 259 259 254 251 249 243 247 257 250 240 232 232 230 224 226 226 225 220